IK5NLA Vaiano IT current weather conditions

sailwx.info

Wind from 248 at 8 knots

Air temperature 25.0° C
Dewpoint 14.7° C

Last reported at 2020-Jul-10 18:04 UTC.
Time now 2020-Jul-10 18:57 UTC

Location: N 43°58' E 011°06'.
View on Google Maps.

See reports from other nearby stations

  
Tides and Currents Weather Stations Pressure Air Temp Water Temp Dewpoint Dewpoint Depression Visibility Wind Speed Wind Dir Waves Ship Positions
date/time (UTC)wind fromknots sea level pressurealtimeterstation pressurevisibilityair tempwater tempwave heightnotes
2020-Jul-10 18:04 248 8 25.0
2020-Jul-10 17:59 264 7 25.0
2020-Jul-10 17:54 250 7 25.0
2020-Jul-10 17:49 286 7 25.0
2020-Jul-10 17:44 278 8 25.6
2020-Jul-10 17:39 257 7 25.6
2020-Jul-10 17:34 234 7 25.6
2020-Jul-10 17:29 258 6 25.6
2020-Jul-10 17:24 265 6 25.6
2020-Jul-10 17:19 244 6 25.6
2020-Jul-10 17:14 242 6 26.1
2020-Jul-10 17:09 267 6 26.1
2020-Jul-10 17:04 259 7 26.1
2020-Jul-10 16:59 230 6 26.7
2020-Jul-10 16:54 249 6 26.7
2020-Jul-10 16:49 233 5 26.7
2020-Jul-10 16:44 261 4 26.7
2020-Jul-10 16:39 239 5 27.2
2020-Jul-10 16:34 233 6 27.2
2020-Jul-10 16:29 253 6 27.2
2020-Jul-10 16:24 211 5 27.2
2020-Jul-10 16:19 252 5 27.2
2020-Jul-10 16:14 242 6 27.2
2020-Jul-10 16:09 252 6 27.2
2020-Jul-10 16:04 258 6 27.8
2020-Jul-10 15:59 218 5 27.2
2020-Jul-10 15:54 265 5 27.8
2020-Jul-10 15:49 306 5 27.8
2020-Jul-10 15:44 264 5 27.8
2020-Jul-10 15:39 238 6 27.8
2020-Jul-10 15:34 223 6 27.8
2020-Jul-10 15:29 252 6 27.8
2020-Jul-10 15:24 222 6 27.8
2020-Jul-10 15:19 215 5 28.3
2020-Jul-10 15:14 183 6 27.8
2020-Jul-10 15:09 269 6 27.8
2020-Jul-10 15:04 207 5 27.8
2020-Jul-10 14:59 182 3 28.3
2020-Jul-10 14:54 277 5 28.3
2020-Jul-10 14:49 208 6 28.3
2020-Jul-10 14:44 194 5 28.3
2020-Jul-10 14:39 192 4 28.3
2020-Jul-10 14:34 221 5 28.9
2020-Jul-10 14:29 196 6 28.3
2020-Jul-10 14:24 148 6 27.8
2020-Jul-10 14:19 162 6 27.8
2020-Jul-10 14:14 211 6 28.3
2020-Jul-10 14:09 191 6 27.8
2020-Jul-10 14:04 172 6 27.8
2020-Jul-10 13:59 190 5 28.3
2020-Jul-10 13:54 222 5 28.3
2020-Jul-10 13:49 177 6 28.3
2020-Jul-10 13:44 190 6 27.8
2020-Jul-10 13:39 175 5 28.3
2020-Jul-10 13:34 193 6 28.3
2020-Jul-10 13:29 286 8 27.8
2020-Jul-10 13:24 206 7 27.8
2020-Jul-10 13:19 213 6 28.3
2020-Jul-10 13:14 161 6 28.3
2020-Jul-10 13:09 179 6 27.8
2020-Jul-10 13:04 167 6 27.8
2020-Jul-10 12:59 146 5 27.8
2020-Jul-10 12:54 167 5 27.8
2020-Jul-10 12:49 148 6 28.3
2020-Jul-10 12:44 214 6 27.8
2020-Jul-10 12:39 149 5 27.8
2020-Jul-10 12:34 281 5 27.8
2020-Jul-10 12:29 153 4 27.8
2020-Jul-10 12:24 286 5 27.8
2020-Jul-10 12:19 234 6 27.8
2020-Jul-10 12:14 236 6 27.8
2020-Jul-10 12:09 196 5 27.8
2020-Jul-10 12:04 194 6 27.8
2020-Jul-10 11:59 180 5 27.8
2020-Jul-10 11:54 183 4 28.3
2020-Jul-10 11:49 248 5 28.3
2020-Jul-10 11:44 175 6 27.2
2020-Jul-10 11:39 205 5 27.8
2020-Jul-10 11:34 194 3 27.8
2020-Jul-10 11:29 233 4 27.2
2020-Jul-10 11:24 190 4 27.2
2020-Jul-10 11:19 237 5 27.2
2020-Jul-10 11:14 153 4 27.2
2020-Jul-10 11:09 175 3 27.2
2020-Jul-10 11:04 214 4 27.2
2020-Jul-10 10:59 206 5 26.7
2020-Jul-10 10:54 150 4 27.2
2020-Jul-10 10:49 238 3 27.8
2020-Jul-10 10:44 256 4 27.2
2020-Jul-10 10:39 203 5 26.7
2020-Jul-10 10:34 175 5 26.7
2020-Jul-10 10:29 153 4 26.7
2020-Jul-10 10:24 196 4 26.7
2020-Jul-10 10:19 182 4 26.7
2020-Jul-10 10:14 226 5 26.7
2020-Jul-10 10:09 200 5 26.7
2020-Jul-10 10:04 202 5 26.1
2020-Jul-10 09:59 200 4 26.7
2020-Jul-10 09:54 227 4 26.1
2020-Jul-10 09:49 223 3 26.7
2020-Jul-10 09:44 222 4 26.7
2020-Jul-10 09:39 221 4 26.1
2020-Jul-10 09:34 167 3 26.7
2020-Jul-10 09:29 166 3 26.7
2020-Jul-10 09:24 167 4 26.1
2020-Jul-10 09:19 222 5 26.1
2020-Jul-10 09:14 180 5 26.1
2020-Jul-10 09:09 184 5 25.6
2020-Jul-10 09:04 138 5 26.1
2020-Jul-10 08:59 167 4 25.6
2020-Jul-10 08:54 200 4 25.6
2020-Jul-10 08:49 168 4 25.6
2020-Jul-10 08:44 150 3 25.6
2020-Jul-10 08:39 152 3 26.7
2020-Jul-10 08:34 119 3 25.6
2020-Jul-10 08:29 113 2 25.6
2020-Jul-10 08:24 119 2 25.0
2020-Jul-10 08:19 079 1 25.0
2020-Jul-10 08:14 114 1 25.6
2020-Jul-10 08:09 147 1 25.0
2020-Jul-10 08:04 111 1 25.0
2020-Jul-10 07:59 149 1 24.4
2020-Jul-10 07:54 163 1 23.9
2020-Jul-10 07:49 145 1 25.0
2020-Jul-10 07:44 096 1 24.4
2020-Jul-10 07:39 088 1 24.4
2020-Jul-10 07:34 109 1 23.9
2020-Jul-10 07:29 100 1 23.9
2020-Jul-10 07:24 126 1 23.9
2020-Jul-10 07:19 117 1 23.9
2020-Jul-10 07:14 098 1 23.9
2020-Jul-10 07:09 070 1 23.3
2020-Jul-10 07:04 110 1 23.3
2020-Jul-10 06:59 128 1 22.8
2020-Jul-10 06:54 122 1 22.8
2020-Jul-10 06:49 093 0 23.3
2020-Jul-10 06:44 095 1 22.8
2020-Jul-10 06:39 080 1 22.8
2020-Jul-10 06:34 094 1 22.8
2020-Jul-10 06:29 092 0 22.8
2020-Jul-10 06:24 098 0 22.8
2020-Jul-10 06:19 096 1 22.2
2020-Jul-10 06:14 055 0 22.2
2020-Jul-10 06:09 089 0 22.8
2020-Jul-10 06:04 103 0 22.2
2020-Jul-10 05:59 102 0 22.2
2020-Jul-10 05:54 112 0 22.2
2020-Jul-10 05:49 112 22.2
2020-Jul-10 05:44 099 0 22.2
2020-Jul-10 05:39 099 0 22.2
2020-Jul-10 05:34 107 0 22.2
2020-Jul-10 05:29 106 0 22.2
2020-Jul-10 05:24 128 22.2
2020-Jul-10 05:19 128 22.2
2020-Jul-10 05:14 128 21.7
2020-Jul-10 05:09 128 21.1
2020-Jul-10 05:04 128 21.1
2020-Jul-10 04:59 229 21.1
2020-Jul-10 04:54 229 20.6
2020-Jul-10 04:49 229 20.6
2020-Jul-10 04:44 229 20.0
2020-Jul-10 04:39 229 0 20.0
2020-Jul-10 04:34 229 1 20.0
2020-Jul-10 04:29 229 1 20.0
2020-Jul-10 04:24 230 2 20.0
2020-Jul-10 04:19 231 1 20.0
2020-Jul-10 04:14 256 0 20.0
2020-Jul-10 04:09 236 19.4
2020-Jul-10 04:04 305 19.4
2020-Jul-10 03:59 304 1 19.4
2020-Jul-10 03:54 304 2 19.4
2020-Jul-10 03:49 315 2 19.4
2020-Jul-10 03:44 325 1 20.0
2020-Jul-10 03:39 309 0 19.4
2020-Jul-10 03:34 299 0 19.4
2020-Jul-10 03:29 311 19.4
2020-Jul-10 03:24 312 19.4
2020-Jul-10 03:19 311 0 19.4
2020-Jul-10 03:14 312 0 19.4
2020-Jul-10 03:09 312 0 19.4
2020-Jul-10 03:04 334 1 20.0
2020-Jul-10 02:59 327 2 20.0
2020-Jul-10 02:54 322 1 20.0
2020-Jul-10 02:49 340 1 20.0
2020-Jul-10 02:44 321 1 20.0
2020-Jul-10 02:39 319 2 20.0
2020-Jul-10 02:34 319 3 19.4
2020-Jul-10 02:29 313 3 19.4
2020-Jul-10 02:24 313 2 19.4
2020-Jul-10 02:19 313 1 20.0
2020-Jul-10 02:14 315 1 20.0
2020-Jul-10 02:09 314 1 20.0
2020-Jul-10 02:04 317 2 20.0
2020-Jul-10 01:59 315 2 20.0
2020-Jul-10 01:54 308 2 19.4
2020-Jul-10 01:49 307 1 19.4
2020-Jul-10 01:44 304 1 19.4
2020-Jul-10 01:39 304 0 19.4
2020-Jul-10 01:34 315 19.4
2020-Jul-10 01:29 319 0 20.0
2020-Jul-10 01:24 319 2 20.0
2020-Jul-10 01:19 319 1 20.0
2020-Jul-10 01:14 307 0 20.0
2020-Jul-10 01:09 306 0 20.0
2020-Jul-10 01:04 304 0 20.0
2020-Jul-10 00:59 315 20.0
2020-Jul-10 00:54 315 0 20.0
2020-Jul-10 00:49 315 1 20.0
2020-Jul-10 00:44 317 1 20.0
2020-Jul-10 00:39 317 1 20.0
2020-Jul-10 00:34 310 1 20.6
2020-Jul-10 00:29 310 1 20.0
2020-Jul-10 00:24 319 2 20.0
2020-Jul-10 00:19 315 2 20.6
2020-Jul-10 00:14 329 2 20.6
2020-Jul-10 00:09 313 3 20.6
2020-Jul-10 00:04 317 3 20.6
2020-Jul-09 23:59 316 3 20.6
2020-Jul-09 23:54 326 3 20.6
2020-Jul-09 23:49 315 3 20.6
2020-Jul-09 23:44 305 4 20.6
2020-Jul-09 23:39 317 3 21.1
2020-Jul-09 23:34 313 4 21.1
2020-Jul-09 23:29 315 4 21.1
2020-Jul-09 23:24 318 3 20.6
2020-Jul-09 23:19 318 4 20.6
2020-Jul-09 23:14 319 4 20.6
2020-Jul-09 23:09 318 4 20.6
2020-Jul-09 23:04 311 3 20.6
2020-Jul-09 22:59 309 3 21.1
2020-Jul-09 22:54 305 2 21.1
2020-Jul-09 22:49 313 0 21.1
2020-Jul-09 22:44 312 21.7
2020-Jul-09 22:39 311 21.7
2020-Jul-09 22:34 312 21.1
2020-Jul-09 22:29 312 0 21.1
2020-Jul-09 22:24 312 1 21.7
2020-Jul-09 22:19 311 1 21.7
2020-Jul-09 22:14 309 1 21.7
2020-Jul-09 22:09 318 0 21.7
2020-Jul-09 22:04 320 22.2
2020-Jul-09 21:59 320 22.2
2020-Jul-09 21:54 320 0 22.2
2020-Jul-09 21:49 319 0 22.2
2020-Jul-09 21:44 320 0 21.7
2020-Jul-09 21:39 319 1 21.7
2020-Jul-09 21:34 311 1 22.2
2020-Jul-09 21:29 319 0 22.2
2020-Jul-09 21:24 035 22.2
2020-Jul-09 21:19 044 22.2
2020-Jul-09 21:14 335 22.2
2020-Jul-09 21:09 341 22.2
2020-Jul-09 21:04 341 0 22.2
2020-Jul-09 20:59 341 1 22.8
2020-Jul-09 20:54 005 1 22.8
2020-Jul-09 20:49 017 1 23.3
2020-Jul-09 20:44 336 1 23.3
2020-Jul-09 20:39 312 1 23.3
2020-Jul-09 20:34 329 1 23.3
2020-Jul-09 20:29 344 0 23.3
2020-Jul-09 20:24 300 0 23.3
2020-Jul-09 20:19 302 0 23.3
2020-Jul-09 20:14 334 0 23.3
2020-Jul-09 20:09 355 0 23.3
2020-Jul-09 20:04 300 0 23.3
2020-Jul-09 19:59 317 1 23.9
2020-Jul-09 19:54 348 1 23.9
2020-Jul-09 19:49 038 1 23.9
2020-Jul-09 19:44 355 0 23.9
2020-Jul-09 19:39 313 0 23.9
2020-Jul-09 19:33 342 0 24.4
2020-Jul-09 19:29 355 1 24.4
2020-Jul-09 19:24 355 2 24.4
2020-Jul-09 19:19 030 2 24.4
2020-Jul-09 19:14 315 3 25.0
2020-Jul-09 19:09 311 4 25.0
2020-Jul-09 19:04 289 6 25.0
2020-Jul-09 18:59 282 7 25.0
2020-Jul-09 18:54 277 9 25.0
2020-Jul-09 18:49 259 10 25.0
2020-Jul-09 18:44 283 11 25.0
2020-Jul-09 18:39 267 12 25.6
2020-Jul-09 18:34 281 12 25.6
2020-Jul-09 18:29 264 13 25.6
2020-Jul-09 18:24 299 13 25.6
2020-Jul-09 18:19 267 13 25.6
2020-Jul-09 18:14 282 13 25.6
2020-Jul-09 18:09 268 13 25.6
2020-Jul-09 18:04 241 12 25.6
2020-Jul-09 17:59 266 12 25.6
2020-Jul-09 17:54 268 13 25.6
2020-Jul-09 17:49 280 13 25.6
2020-Jul-09 17:44 272 12 26.1
2020-Jul-09 17:39 271 12 26.1
2020-Jul-09 17:34 259 12 26.1
2020-Jul-09 17:29 267 11 26.1
2020-Jul-09 17:24 286 10 26.1
2020-Jul-09 17:19 277 10 26.1
2020-Jul-09 17:14 277 10 26.1
2020-Jul-09 17:09 267 10 26.7
2020-Jul-09 17:04 275 9 26.7
2020-Jul-09 16:59 250 8 26.7
2020-Jul-09 16:54 267 9 27.2
2020-Jul-09 16:49 217 7 27.2
2020-Jul-09 16:44 241 6 27.2
2020-Jul-09 16:39 283 6 27.2
2020-Jul-09 16:34 248 5 27.8
2020-Jul-09 16:29 275 6 27.8
2020-Jul-09 16:24 248 6 27.8
2020-Jul-09 16:19 265 6 27.8
2020-Jul-09 16:14 235 6 27.8
2020-Jul-09 16:09 227 5 27.8
2020-Jul-09 16:04 223 4 28.3
2020-Jul-09 15:59 249 4 28.3
2020-Jul-09 15:54 223 6 28.3
2020-Jul-09 15:49 209 6 27.8
2020-Jul-09 15:44 240 5 28.3
2020-Jul-09 15:39 200 4 28.9
2020-Jul-09 15:34 219 3 28.9
2020-Jul-09 15:29 232 3 28.9
2020-Jul-09 15:24 260 4 28.9
2020-Jul-09 15:19 250 3 28.9
2020-Jul-09 15:14 157 4 28.9
2020-Jul-09 15:09 159 3 28.3
2020-Jul-09 15:04 234 3 28.9
2020-Jul-09 14:59 169 3 28.9
2020-Jul-09 14:54 175 4 28.3
2020-Jul-09 14:49 179 6 28.3
2020-Jul-09 14:44 193 6 27.8
2020-Jul-09 14:39 186 6 28.3
2020-Jul-09 14:34 205 6 28.3
2020-Jul-09 14:29 214 4 28.3
2020-Jul-09 14:24 261 3 29.4
2020-Jul-09 14:19 242 2 29.4
2020-Jul-09 14:14 271 3 28.9
2020-Jul-09 14:09 274 2 28.9
2020-Jul-09 14:04 240 3 29.4
2020-Jul-09 13:59 198 4 28.9
2020-Jul-09 13:54 219 4 28.9
2020-Jul-09 13:49 184 5 28.9
2020-Jul-09 13:44 173 6 28.9
2020-Jul-09 13:39 175 6 28.9
2020-Jul-09 13:34 234 5 29.4
2020-Jul-09 13:29 215 2 29.4
2020-Jul-09 13:24 087 2 29.4
2020-Jul-09 13:19 096 3 28.9
2020-Jul-09 13:14 162 4 29.4
2020-Jul-09 13:09 189 5 28.9
2020-Jul-09 13:04 206 2 29.4
2020-Jul-09 12:59 211 3 28.9
2020-Jul-09 12:54 025 4 28.3
2020-Jul-09 12:49 219 2 28.9
2020-Jul-09 12:44 247 3 28.9
2020-Jul-09 12:39 227 5 28.3
2020-Jul-09 12:34 267 5 28.3
2020-Jul-09 12:29 236 3 28.3
2020-Jul-09 12:24 133 2 28.9
2020-Jul-09 12:19 086 3 28.9
2020-Jul-09 12:14 105 2 28.3
2020-Jul-09 12:09 167 0 29.4
2020-Jul-09 12:04 295 3 28.9
2020-Jul-09 11:59 236 5 27.8
2020-Jul-09 11:54 207 5 27.8
2020-Jul-09 11:49 248 3 28.3
2020-Jul-09 11:44 227 3 28.3
2020-Jul-09 11:39 210 3 27.8
2020-Jul-09 11:34 133 4 28.3
2020-Jul-09 11:29 193 4 27.8
2020-Jul-09 11:24 148 2 27.8
2020-Jul-09 11:19 171 1 29.4
2020-Jul-09 11:14 301 2 28.3
2020-Jul-09 11:09 279 3 28.3
2020-Jul-09 11:04 087 3 27.8
2020-Jul-09 10:59 088 2 28.3
2020-Jul-09 10:54 120 3 27.8
2020-Jul-09 10:49 079 4 27.2
2020-Jul-09 10:44 070 3 27.2
2020-Jul-09 10:39 092 2 27.8
2020-Jul-09 10:34 111 2 27.2
2020-Jul-09 10:29 086 1 27.2
2020-Jul-09 10:24 202 1 27.2
2020-Jul-09 10:19 259 2 26.7
2020-Jul-09 10:14 191 2 27.2
2020-Jul-09 10:09 187 2 27.2
2020-Jul-09 10:04 185 2 26.7
2020-Jul-09 09:59 182 1 26.7
2020-Jul-09 09:54 182 0 27.2
2020-Jul-09 09:49 187 1 27.2
2020-Jul-09 09:44 150 2 26.7
2020-Jul-09 09:39 103 2 26.7
2020-Jul-09 09:34 082 2 26.7
2020-Jul-09 09:29 109 2 26.1
2020-Jul-09 09:24 098 2 26.7
2020-Jul-09 09:19 069 2 26.7
2020-Jul-09 09:14 179 1 26.7
2020-Jul-09 09:09 071 1 27.2
2020-Jul-09 09:04 062 2 26.1
2020-Jul-09 08:59 111 2 26.1
2020-Jul-09 08:54 072 1 26.1
2020-Jul-09 08:49 082 1 26.1
2020-Jul-09 08:44 086 2 26.1
2020-Jul-09 08:39 103 2 25.6
2020-Jul-09 08:34 107 2 25.6
2020-Jul-09 08:29 084 3 25.6
2020-Jul-09 08:24 094 2 25.6
2020-Jul-09 08:19 102 1 26.1
2020-Jul-09 08:14 111 1 25.6
2020-Jul-09 08:09 139 1 25.6
2020-Jul-09 08:04 064 1 25.0
2020-Jul-09 07:59 041 2 24.4
2020-Jul-09 07:54 129 1 25.0
2020-Jul-09 07:49 069 2 25.0
2020-Jul-09 07:44 081 3 24.4
2020-Jul-09 07:39 098 3 24.4
2020-Jul-09 07:34 097 3 24.4
2020-Jul-09 07:29 069 3 24.4
2020-Jul-09 07:24 086 3 24.4
2020-Jul-09 07:19 082 4 23.9
2020-Jul-09 07:14 088 4 23.9
2020-Jul-09 07:09 069 4 23.9
2020-Jul-09 07:04 081 4 23.9
2020-Jul-09 06:59 065 4 23.9
2020-Jul-09 06:54 055 4 23.3
2020-Jul-09 06:49 086 3 23.3
2020-Jul-09 06:44 065 3 23.3
2020-Jul-09 06:39 069 3 22.8
2020-Jul-09 06:34 057 2 22.8
2020-Jul-09 06:29 081 1 23.3
2020-Jul-09 06:24 091 0 23.3
2020-Jul-09 06:19 083 0 23.9
2020-Jul-09 06:14 087 0 23.3
2020-Jul-09 06:09 086 23.3
2020-Jul-09 06:04 085 23.3
2020-Jul-09 05:59 084 0 22.8
2020-Jul-09 05:54 084 0 22.8
2020-Jul-09 05:49 113 22.8
2020-Jul-09 05:44 140 22.2
2020-Jul-09 05:39 140 22.8
2020-Jul-09 05:34 119 22.8
2020-Jul-09 05:29 119 22.8
2020-Jul-09 05:24 115 22.8
2020-Jul-09 05:19 116 22.8
2020-Jul-09 05:14 116 0 22.8
2020-Jul-09 05:09 046 22.2
2020-Jul-09 05:04 046 22.2
2020-Jul-09 04:59 046 1 22.2
2020-Jul-09 04:54 025 0 21.7
2020-Jul-09 04:49 346 21.1
2020-Jul-09 04:44 331 0 21.7
2020-Jul-09 04:39 332 1 21.7
2020-Jul-09 04:34 332 2 21.7
2020-Jul-09 04:29 330 2 21.7
2020-Jul-09 04:24 333 2 21.1
2020-Jul-09 04:19 323 3 21.1
2020-Jul-09 04:14 320 4 21.1
2020-Jul-09 04:09 326 4 21.1
2020-Jul-09 04:04 337 4 21.1
2020-Jul-09 03:59 318 4 21.1
2020-Jul-09 03:54 329 5 20.6
2020-Jul-09 03:49 314 5 21.1
2020-Jul-09 03:44 318 4 20.6
2020-Jul-09 03:39 322 4 20.6
2020-Jul-09 03:34 331 4 20.6
2020-Jul-09 03:29 325 3 20.6
2020-Jul-09 03:24 323 3 20.6
2020-Jul-09 03:19 309 3 20.0
2020-Jul-09 03:14 309 3 20.0
2020-Jul-09 03:09 315 3 20.0
2020-Jul-09 03:04 313 4 20.0
2020-Jul-09 02:59 321 4 20.0
2020-Jul-09 02:54 314 4 20.6
2020-Jul-09 02:49 315 4 21.1
2020-Jul-09 02:44 317 4 20.6
2020-Jul-09 02:39 329 4 20.6
2020-Jul-09 02:34 319 4 20.6
2020-Jul-09 02:29 325 4 20.6
2020-Jul-09 02:24 319 4 20.6
2020-Jul-09 02:19 325 4 20.6
2020-Jul-09 02:14 325 5 20.6
2020-Jul-09 02:09 318 5 20.6
2020-Jul-09 02:04 315 4 20.6
2020-Jul-09 01:59 322 4 20.6
2020-Jul-09 01:54 307 3 20.6
2020-Jul-09 01:49 319 3 20.6
2020-Jul-09 01:44 321 4 20.6
2020-Jul-09 01:39 323 4 20.6
2020-Jul-09 01:34 315 4 20.6
2020-Jul-09 01:29 319 4 20.6
2020-Jul-09 01:24 318 4 20.6
2020-Jul-09 01:19 330 3 20.6
2020-Jul-09 01:14 315 3 20.6
2020-Jul-09 01:09 311 4 20.6
2020-Jul-09 01:04 321 5 20.6
2020-Jul-09 00:59 311 4 20.6
2020-Jul-09 00:54 317 4 20.6
2020-Jul-09 00:49 327 3 20.6
2020-Jul-09 00:44 355 3 20.6
2020-Jul-09 00:39 332 3 20.6
2020-Jul-09 00:34 322 3 20.6
2020-Jul-09 00:29 325 4 20.6
2020-Jul-09 00:24 319 4 20.6
2020-Jul-09 00:19 322 4 20.6
2020-Jul-09 00:14 315 5 20.6
2020-Jul-09 00:09 306 4 20.6
2020-Jul-09 00:04 304 4 20.6
2020-Jul-08 23:59 309 4 20.6
2020-Jul-08 23:54 305 4 20.0
2020-Jul-08 23:49 313 4 20.6
2020-Jul-08 23:44 302 4 20.6
2020-Jul-08 23:39 315 4 20.6
2020-Jul-08 23:34 318 5 20.0
2020-Jul-08 23:29 309 5 20.6
2020-Jul-08 23:24 320 5 20.6
2020-Jul-08 23:19 314 5 21.1
2020-Jul-08 23:14 317 4 21.1
2020-Jul-08 23:09 317 4 21.1
2020-Jul-08 23:04 317 4 21.1
2020-Jul-08 22:59 325 4 21.1
2020-Jul-08 22:54 319 4 21.1
2020-Jul-08 22:49 316 3 21.1
2020-Jul-08 22:44 329 3 21.1
2020-Jul-08 22:39 315 3 21.1
2020-Jul-08 22:34 327 4 20.6
2020-Jul-08 22:29 311 4 20.6
2020-Jul-08 22:24 310 3 20.6
2020-Jul-08 22:19 312 2 21.1
2020-Jul-08 22:14 317 2 21.1
2020-Jul-08 22:09 304 2 21.7
2020-Jul-08 22:04 304 1 21.7
2020-Jul-08 21:59 306 0 21.7
2020-Jul-08 21:54 306 0 21.7
2020-Jul-08 21:49 306 1 21.7
2020-Jul-08 21:44 306 0 21.7
2020-Jul-08 21:39 315 0 21.1
2020-Jul-08 21:34 318 0 21.1
2020-Jul-08 21:29 319 2 21.1
2020-Jul-08 21:24 340 2 21.1
2020-Jul-08 21:19 306 0 21.1
2020-Jul-08 21:14 310 0 21.1
2020-Jul-08 21:09 303 0 21.1
2020-Jul-08 21:04 300 0 21.1
2020-Jul-08 20:59 299 21.1
2020-Jul-08 20:54 299 0 21.7
2020-Jul-08 20:49 299 1 21.7
2020-Jul-08 20:44 298 1 22.2
2020-Jul-08 20:39 300 0 21.7
2020-Jul-08 20:34 306 0 21.7
2020-Jul-08 20:29 306 2 21.7
2020-Jul-08 20:24 309 2 21.7
2020-Jul-08 20:19 302 0 21.7
2020-Jul-08 20:14 309 0 22.2
2020-Jul-08 20:09 309 1 22.2
2020-Jul-08 20:04 310 2 22.2
2020-Jul-08 19:59 298 0 22.2
2020-Jul-08 19:54 288 0 22.2
2020-Jul-08 19:49 261 1 22.2
2020-Jul-08 19:44 307 2 22.2
2020-Jul-08 19:39 314 2 22.2
2020-Jul-08 19:34 302 2 22.2
2020-Jul-08 19:29 304 2 22.8
2020-Jul-08 19:24 316 1 23.3
2020-Jul-08 19:19 304 1 23.3
2020-Jul-08 19:14 302 1 23.3
2020-Jul-08 19:09 303 2 23.3
2020-Jul-08 19:04 301 3 23.3
2020-Jul-08 18:59 302 4 23.3
2020-Jul-08 18:54 303 5 23.3
2020-Jul-08 18:49 300 5 23.3
2020-Jul-08 18:44 300 4 23.3
2020-Jul-08 18:39 300 4 23.3
2020-Jul-08 18:34 322 3 23.3
2020-Jul-08 18:29 322 3 23.3
2020-Jul-08 18:24 316 5 23.3
2020-Jul-08 18:19 322 4 23.9
2020-Jul-08 18:14 306 1 23.9
2020-Jul-08 18:09 250 2 23.9
2020-Jul-08 18:04 311 4 24.4